Regional Weather Roundup
Issued by NWS Upton, NY

Current Version | Previous Version | Text Only | Print | Product List | Glossary On
Versions: 1 2 3 4 5 6 7 8 9 10 11 12 13 14 15 16 17 18 19 20 21 22 23 24 25 26 27 28 29 30 31 32 33 34 35 36 37 38 39 40 41 42 43 44 45 46 47 48 49 50
000
ASUS41 KOKX 280304
RWROKX

REGIONAL WEATHER ROUNDUP
NATIONAL WEATHER SERVICE NEW YORK NY
1100 PM EDT TUE SEP 27 2016

NOTE: "FAIR" INDICATES FEW OR NO CLOUDS BELOW 12,000 FEET WITH NO
SIGNIFICANT WEATHER AND/OR OBSTRUCTIONS TO VISIBILITY.

NYZ071-072-176-178-NJZ106-104-280400-
NEW YORK CITY METRO AREA

CITY           SKY/WX    TMP DP  RH WIND       PRES   REMARKS
Central Park   CLEAR     67  61  81 CALM      29.99R
LaGuardia APRT PTCLDY    70  63  78 CALM      29.96R
Kennedy INTL   PTCLDY    67  63  87 W8        29.97R
Newark/Liberty PTCLDY    65  60  84 SW6       29.96R
Bronx Bot Gard   N/A    N/A N/A N/A CALM      29.98S
Wall St Helipt CLEAR     70  63  78 CALM      29.97R
Teterboro      CLEAR     63  57  81 CALM      29.96R
$$

NYZ177-179-078>081-280400-
LONG ISLAND NEW YORK

CITY           SKY/WX    TMP DP  RH WIND       PRES   REMARKS
Farmingdale    CLEAR     62  60  93 CALM      29.97R
MacArthur/ISP  MOCLDY    62  60  93 CALM      29.97R
Shirley        CLOUDY    60  60 100 CALM      29.98R
Riverhead      NOT AVBL
Westhampton    CLOUDY    63  61  93 CALM      29.99S
Southampton      N/A     66  63  88 CALM      29.94S
Bridgehampton    N/A    N/A N/A N/A CALM      29.84R
East Hampton   CLOUDY    63  62  96 CALM      29.97S
Montauk          N/A     66  64  93 CALM      29.99R
$$

NYZ052-065-067-280400-
HUDSON VALLEY

CITY           SKY/WX    TMP DP  RH WIND       PRES   REMARKS
White Plains   CLEAR     60  58  92 NW3       29.97R
Newburgh       CLEAR     54  54 100 W6        29.99R
Montgomery     CLEAR     52  50  93 CALM      29.98R
Poughkeepsie   CLEAR     52  51  97 CALM      29.97R
Albany         PTCLDY    55  52  89 CALM      29.98R
$$

NJZ001-105-106-008-010-013-015-019>022-104-280400-
NEW JERSEY

CITY           SKY/WX    TMP DP  RH WIND       PRES   REMARKS
Newark/Liberty PTCLDY    65  60  84 SW6       29.96R
Teterboro      CLEAR     63  57  81 CALM      29.96R
Caldwell       CLEAR     57  53  86 CALM      29.98R
Morristown     CLEAR     50  50 100 CALM      29.97S FOG
Somerville     CLEAR     53  50  89 NW5       29.96R
Linden         NOT AVBL
Sussex         PTCLDY    50  50 100 CALM      29.99R FOG
Abdover          N/A     51  49  92 CALM      29.99R
Trenton        CLEAR     58  52  80 CALM      29.96R
Millville      CLEAR     56  56 100 W3        29.96R
Atlantic City  CLOUDY    62  60  93 CALM      29.96S
Wrightstown    CLEAR     57  57  97 N1        29.94R
Toms River     CLEAR     57  57 100 CALM      29.97R
Belmar         CLEAR     62  61  96 S3        29.98R
$$

PAZ047>061-062-071-280400-
EASTERN PENNSYLVANIA

CITY           SKY/WX    TMP DP  RH WIND       PRES   REMARKS
Philadelphia   PTCLDY    64  59  83 CALM      29.97R
Allentown      CLEAR     55  49  80 CALM      29.98R
Scranton       CLEAR     56  48  74 E8        29.98R
$$

CTZ002-004>006-009-010-012-RIZ004-006-007-MAZ004-011-015-280400-
SOUTHERN NEW ENGLAND
 IN CT

CITY           SKY/WX    TMP DP  RH WIND       PRES   REMARKS
Bradley INTL   PTCLDY    57  55  93 CALM      29.99R
Hartford       CLEAR     60  59  96 SE3       29.98R
Danbury        CLEAR     53  52  96 CALM      30.00R
Wtrbury/Oxford   N/A     55  52  88 CALM      30.00R
Bridgeport     CLEAR     65  61  87 NE3       29.97R
Meriden        PTCLDY    60  56  86 CALM      29.98R
New Haven      CLEAR     59  57  93 CALM      29.98R
Chester        FAIR      57  57 100 CALM      29.99R
Groton         PTCLDY    63  60  90 N3        29.98R
Wilimantic     MOCLDY    60  59  96 CALM      30.00R

 IN RI

CITY           SKY/WX    TMP DP  RH WIND       PRES   REMARKS
Providence     PTCLDY    61  59  93 CALM      30.00R
Block Island   NOT AVBL
Westerly       CLOUDY    62  58  86 N3        30.00R
 IN MA

CITY           SKY/WX    TMP DP  RH WIND       PRES   REMARKS
Boston         PTCLDY    61  60  97 E3        30.01R
Worcester      CLEAR     60  54  80 N6        30.01R
Westfield      CLEAR     57  55  93 CALM      29.99R
Provincetown   CLOUDY    60  59  96 E6        30.01R
Nantucket      LGT RAIN  66  65  96 CALM      29.98S FOG
$$

ANZ330-335-338-340-345-350-353-355-280400-
COASTAL MARINE OBSERVATIONS


STATION/POSITION TIME  SKY/WX   TEMP    WIND        PRES    VSBY  WAVE
                                AIR SEA DIR/SP/G                  HT/PER
                 (UTC)          (F)     (DEG/KT/KT) (MB)    (MI)  (FT/S)
NY HARB ENTRANCE 0150            70 71  230/  8/ 10 1014.2          4/ 7
20S FIRE ISLAND  0150            69 70  220/  8/  8 1014.2          4/ 7
GREAT SOUTH BAY  0215            69 70  230/  4/  6   N/A
23 SSW MONTAUK P 0150            68 68  230/  6/  6 1015.1          5/ 8
15 E BARNEGAT LI 0230               71                N/A           4/ 6
HUDSON CANYON    0150            69 69              1014.5          5/ 7
KINGS POINT      0230            66 72              1014.4
EXECUTION ROCKS  0245            68     200/  4/  4   N/A
CENTRAL LI SOUND 0230            69 72  230/  6/  6   N/A           1
EASTERN LI SOUND NOT AVBL
ROBBINS REEF     0230            68     240/  9/ 10 1014.7
$$


>>>>>>>>>>>>>>>>>>>>>>>>>>>> KEY <<<<<<<<<<<<<<<<<<<<<<<<<<<
>                                                          <
>     SKY/WX - Sky Condition/Present Weather               <
>     TMP    - Temperature in Fahrenheit                   <
>     DP     - Dew Point in Fahrenheit                     <
>     RH     - Relative Humidity in Percent                <
>     WIND   - Direction (from) and Speed in MPH           <
>     PRES   - Mean Sea Level Pressure (inches of Hg)      <
>     WCI    - Wind Chill Index                            <
>     VSB    - VISIBILITY IN MILES                         <
>     HX     - HEAT INDEX                                  <
>     TC     - TEMPERATURE IN CELSIUS                      <
>     VRB    - VARIABLE WIND DIRECTION                     <
>                                                          <
>>>>>>>>>>>>>>>>>>>>>>>>>>>> KEY <<<<<<<<<<<<<<<<<<<<<<<<<<<



USA.gov is the U.S. government's official web portal to all federal, state and local government web resources and services.